FW2795 Weather Reports


Display with metric or nautical units.
time (UTC)temp
F
wind
direction
speed
MPH
gust
MPH
rain 1hr
in
rain 24hr
in
rain mn
in
humidity
%
barometer
mb
20260504081805 56 63 2.0 4.0 0.00 0.00 0.00 94 1014.6
20260504080754 56 88 2.0 4.0 0.00 0.00 0.00 94 1014.5
20260504080254 56 79 1.0 2.0 0.00 0.00 0.00 94 1014.4
20260504070259 56 25 2.0 2.0 0.00 0.00 0.00 93 1013.9
20260504050259 55 312 1.0 3.0 0.00 0.00 0.00 93 1012.9
20260504045759 55 311 1.0 2.0 0.00 0.00 0.00 93 1012.7
20260504045314 55 338 1.0 2.0 0.00 0.00 0.00 93 1012.5
20260504044803 54 315 0.0 2.0 0.00 0.00 0.00 93 1012.5
20260504044303 54 315 0.0 1.0 0.00 0.00 0.00 92 1012.6
20260504043802 54 315 1.0 2.0 0.00 0.00 0.00 92 1012.8
20260504043302 54 315 1.0 2.0 0.00 0.00 0.00 92 1012.9
20260504042802 54 315 0.0 0.0 0.00 0.00 0.00 92 1012.9
20260504042306 54 315 0.0 1.0 0.00 0.00 0.00 92 1012.7
20260504041756 54 315 0.0 1.0 0.00 0.00 0.00 92 1012.6
20260504041255 54 315 1.0 2.0 0.00 0.00 0.00 92 1012.6
20260504040755 54 180 0.0 2.0 0.00 0.00 0.00 92 1012.5
20260504040255 54 180 0.0 2.0 0.00 0.00 0.00 92 1012.8
20260504035754 54 180 0.0 0.0 0.00 0.00 0.00 92 1012.8
20260504035254 55 180 0.0 1.0 0.00 0.00 0.00 92 1012.7
20260504034754 55 180 0.0 0.0 0.00 0.00 0.00 92 1012.7
20260504034253 55 180 0.0 0.0 0.00 0.00 0.00 92 1012.6
20260504033753 55 180 0.0 0.0 0.00 0.00 0.00 92 1012.7
20260504033253 55 180 0.0 1.0 0.00 0.00 0.00 92 1012.5
20260504032752 55 180 0.0 0.0 0.00 0.00 0.00 92 1012.7
20260504032307 54 180 0.0 1.0 0.00 0.00 0.00 92 1012.7
20260504031756 54 180 0.0 0.0 0.00 0.00 0.00 92 1012.6
20260504031256 55 180 0.0 0.0 0.00 0.00 0.00 92 1012.8
20260504030756 54 315 0.0 1.0 0.00 0.00 0.00 92 1012.7
20260504030255 54 315 0.0 1.0 0.00 0.00 0.00 92 1012.6
20260504025755 54 315 0.0 1.0 0.00 0.00 0.00 92 1012.7
20260504025310 54 315 0.0 1.0 0.00 0.00 0.00 91 1012.6
20260504024759 54 315 0.0 2.0 0.00 0.00 0.00 91 1012.5
20260504024259 55 315 1.0 2.0 0.00 0.00 0.00 91 1012.8
20260504023813 55 309 1.0 2.0 0.00 0.00 0.00 91 1012.6
20260504023303 55 303 1.0 2.0 0.00 0.00 0.00 91 1012.5
20260504022802 55 295 2.0 2.0 0.00 0.00 0.00 91 1012.5
20260504022304 55 255 0.0 2.0 0.00 0.00 0.00 91 1012.5
20260504021802 54 255 0.0 1.0 0.00 0.00 0.00 91 1012.6
20260504021302 54 255 1.0 2.0 0.00 0.00 0.00 91 1012.7
20260504020801 54 270 1.0 2.0 0.00 0.00 0.00 90 1012.6
20260504020301 54 270 1.0 2.0 0.00 0.00 0.00 90 1012.7
20260504015801 54 270 1.0 2.0 0.00 0.00 0.00 90 1012.5
20260504015300 54 180 0.0 0.0 0.00 0.00 0.00 90 1012.5
20260504014800 53 180 0.0 1.0 0.00 0.00 0.00 90 1012.5
20260504014250 53 180 0.0 1.0 0.00 0.00 0.00 90 1012.4
20260504013750 53 180 0.0 0.0 0.00 0.00 0.00 90 1012.2
20260504013304 53 180 0.0 1.0 0.00 0.00 0.00 90 1012.4
20260504012804 53 180 0.0 0.0 0.00 0.00 0.00 90 1012.4
20260504012253 53 180 0.0 0.0 0.00 0.00 0.00 89 1012.4
20260504011753 53 180 0.0 0.0 0.00 0.00 0.00 89 1012.3
20260504011253 53 180 0.0 0.0 0.00 0.00 0.00 89 1012.2
20260504010752 53 180 0.0 0.0 0.00 0.00 0.00 89 1012.6
20260504010252 53 180 0.0 0.0 0.00 0.00 0.00 89 1012.4
20260504005751 53 180 0.0 0.0 0.00 0.00 0.00 88 1012.3
20260504005251 54 180 0.0 0.0 0.00 0.00 0.00 87 1012.2
20260504004751 54 180 0.0 0.0 0.00 0.00 0.00 87 1012.4
20260504004305 54 180 0.0 1.0 0.00 0.00 0.00 87 1012.3
20260504003755 54 180 0.0 0.0 0.00 0.00 0.00 87 1012.3
20260504003254 55 180 0.0 0.0 0.00 0.00 0.00 86 1012.2
20260504002754 55 180 0.0 0.0 0.00 0.00 0.00 86 1012.4
20260504002254 55 180 0.0 0.0 0.00 0.00 0.00 86 1012.4
20260504001753 55 180 0.0 0.0 0.00 0.00 0.00 85 1012.3
20260504001252 55 338 0.0 1.0 0.00 0.00 0.00 85 1012.4
20260504000751 56 332 0.0 1.0 0.00 0.00 0.00 86 1012.4
20260504000252 56 332 0.0 0.0 0.00 0.00 0.00 86 1012.4
20260503235751 56 332 0.0 1.0 0.00 0.00 0.00 86 1012.4
20260503235250 56 333 0.0 2.0 0.00 0.00 0.00 87 1012.2
20260503234749 57 333 2.0 3.0 0.00 0.00 0.00 88 1012.3
20260503234249 57 326 1.0 2.0 0.00 0.00 0.00 88 1012.2
20260503233749 57 325 0.0 1.0 0.00 0.00 0.00 88 1012.4
20260503233248 57 323 0.0 2.0 0.00 0.00 0.00 88 1012.4
20260503232748 57 323 2.0 2.0 0.00 0.00 0.00 86 1012.3
20260503232305 57 303 0.0 2.0 0.00 0.00 0.00 86 1012.2
20260503231752 57 304 1.0 2.0 0.00 0.00 0.00 85 1012.3
20260503231252 57 305 1.0 2.0 0.00 0.00 0.00 85 1012.3
20260503230751 57 321 1.0 2.0 0.00 0.00 0.00 85 1012.3
20260503230251 57 324 1.0 2.0 0.00 0.00 0.00 84 1012.2
20260503225805 57 322 0.0 1.0 0.00 0.00 0.00 84 1012.2
20260503225305 58 322 1.0 2.0 0.00 0.00 0.00 84 1012.2
20260503224755 58 323 1.0 2.0 0.00 0.00 0.00 84 1012.0
20260503224310 58 303 0.0 1.0 0.00 0.00 0.00 84 1012.0
20260503223759 58 305 1.0 2.0 0.00 0.00 0.00 84 1012.2
20260503223259 58 301 1.0 2.0 0.00 0.00 0.00 84 1011.9
20260503222758 58 311 0.0 2.0 0.00 0.00 0.00 84 1012.0
20260503222258 58 306 2.0 3.0 0.00 0.00 0.00 84 1012.1
20260503221758 58 291 0.0 2.0 0.00 0.00 0.00 84 1012.0
20260503221257 58 291 1.0 2.0 0.00 0.00 0.00 83 1011.9
20260503220757 58 279 1.0 2.0 0.00 0.00 0.00 83 1011.9
20260503220257 58 268 1.0 2.0 0.00 0.00 0.00 83 1011.9
20260503215756 58 267 1.0 2.0 0.00 0.00 0.00 83 1011.8
20260503215311 58 280 2.0 3.0 0.00 0.00 0.00 82 1012.0
20260503214815 58 270 0.0 1.0 0.00 0.00 0.00 82 1011.7
20260503214305 58 270 2.0 3.0 0.00 0.00 0.00 82 1011.7
20260503213805 59 268 1.0 2.0 0.00 0.00 0.00 82 1011.7
20260503213304 59 262 1.0 2.0 0.00 0.00 0.00 81 1011.6
20260503212804 59 258 2.0 4.0 0.00 0.00 0.00 81 1011.6
20260503212304 59 259 2.0 3.0 0.00 0.00 0.00 81 1011.6
20260503211803 59 256 3.0 4.0 0.00 0.00 0.00 80 1011.6
20260503211302 59 244 1.0 2.0 0.00 0.00 0.00 78 1011.5
20260503210802 59 248 2.0 4.0 0.00 0.00 0.00 77 1011.4
20260503210301 59 267 2.0 3.0 0.00 0.00 0.00 77 1011.5
20260503205801 59 286 2.0 3.0 0.00 0.00 0.00 76 1011.3
20260503205301 59 270 2.0 3.0 0.00 0.00 0.00 76 1011.5
20260503204800 60 270 1.0 2.0 0.00 0.00 0.00 75 1011.3
20260503204315 60 270 0.0 2.0 0.00 0.00 0.00 75 1011.1
20260503203805 60 268 2.0 2.0 0.00 0.00 0.00 74 1011.2
20260503203254 60 267 2.0 3.0 0.00 0.00 0.00 74 1011.1
20260503202754 60 257 0.0 1.0 0.00 0.00 0.00 74 1011.2
20260503202253 60 257 0.0 1.0 0.00 0.00 0.00 74 1011.1
20260503201752 60 257 0.0 2.0 0.00 0.00 0.00 73 1010.9
20260503201252 60 259 1.0 2.0 0.00 0.00 0.00 73 1010.8
20260503200806 60 255 1.0 2.0 0.00 0.00 0.00 73 1010.6
20260503200256 60 253 0.0 1.0 0.00 0.00 0.00 73 1010.7
20260503195755 60 239 0.0 1.0 0.00 0.00 0.00 72 1010.6
20260503195255 60 239 0.0 1.0 0.00 0.00 0.00 72 1010.5
20260503194755 60 239 1.0 2.0 0.00 0.00 0.00 72 1010.6
20260503194255 61 231 2.0 3.0 0.00 0.00 0.00 70 1010.4
20260503193754 61 246 1.0 3.0 0.00 0.00 0.00 70 1010.2
20260503193309 61 238 2.0 2.0 0.00 0.00 0.00 70 1010.2
20260503192814 62 290 1.0 2.0 0.00 0.00 0.00 70 1010.3
20260503192305 62 299 0.0 1.0 0.00 0.00 0.00 70 1010.2
20260503191802 62 301 0.0 1.0 0.00 0.00 0.00 70 1010.0
20260503191302 62 299 2.0 2.0 0.00 0.00 0.00 70 1009.9
20260503190801 62 307 2.0 3.0 0.00 0.00 0.00 69 1010.2
20260503190301 62 298 3.0 4.0 0.00 0.00 0.00 69 1010.2
20260503185816 63 277 2.0 3.0 0.00 0.00 0.00 68 1010.2
20260503185305 63 256 1.0 2.0 0.00 0.02 0.00 67 1010.1
20260503184805 63 241 1.0 4.0 0.00 0.02 0.00 66 1009.8
20260503184304 64 247 1.0 2.0 0.00 0.02 0.00 65 1010.0
20260503183804 64 248 2.0 2.0 0.00 0.02 0.00 65 1009.6
20260503183254 64 263 1.0 2.0 0.00 0.02 0.00 64 1009.8
20260503182753 65 262 2.0 3.0 0.00 0.02 0.00 64 1009.6
20260503182308 65 255 0.0 2.0 0.00 0.02 0.00 64 1009.6
20260503181757 65 253 1.0 2.0 0.00 0.02 0.00 64 1009.7
20260503181257 65 250 2.0 3.0 0.00 0.02 0.00 64 1009.6
20260503180756 65 260 2.0 4.0 0.00 0.02 0.00 63 1009.6
20260503180256 65 247 0.0 2.0 0.00 0.02 0.00 62 1009.6
20260503175756 66 252 2.0 2.0 0.00 0.02 0.00 61 1009.7
20260503175310 67 257 1.0 3.0 0.00 0.02 0.00 61 1009.4
20260503174754 66 264 1.0 2.0 0.00 0.02 0.00 61 1009.5
20260503174254 66 263 2.0 2.0 0.00 0.02 0.00 62 1009.3
20260503173808 65 278 1.0 2.0 0.00 0.02 0.00 63 1009.3
20260503173258 65 285 2.0 4.0 0.00 0.02 0.00 62 1009.1
20260503172757 66 282 3.0 4.0 0.00 0.02 0.00 62 1009.3
20260503172257 66 249 2.0 2.0 0.00 0.02 0.00 60 1009.2
20260503171756 67 245 1.0 2.0 0.00 0.02 0.00 58 1009.4
20260503171257 69 244 2.0 2.0 0.00 0.02 0.00 55 1009.3
20260503170756 71 236 0.0 1.0 0.00 0.02 0.00 51 1009.5
20260503170256 74 236 3.0 4.0 0.00 0.02 0.00 49 1009.4
20260503150753 69 279 2.0 4.0 0.00 0.19 0.00 55 1009.7
20260503150252 68 259 1.0 2.0 0.00 0.19 0.00 56 1009.7
20260503140302 65 226 3.0 4.0 0.00 0.19 0.00 60 1010.0
20260503131304 68 247 1.0 2.0 0.00 0.19 0.00 54 1010.2
20260503130804 68 233 3.0 6.0 0.00 0.19 0.00 52 1010.2
20260503130253 69 240 2.0 4.0 0.00 0.19 0.00 52 1010.2
20260503110752 68 279 2.0 3.0 0.00 0.19 0.00 54 1010.4
20260503110252 68 274 2.0 3.0 0.00 0.19 0.00 55 1010.3
20260503100256 62 271 0.0 1.0 0.00 0.19 0.00 68 1010.7
20260503090300 60 266 1.0 2.0 0.00 0.19 0.00 74 1010.9